Location: Marsån
(66.4167°N, 22.2833°E)
Time: 11:49:50
(UTC+00:00)

Meteor 1-27 Rocket - Pass Details

Date: 24 February 2024
Orbit: 830 x 909 km, 81.3° (Epoch: 15 April)

Event Time Altitude Azimuth Distance (km) Brightness Sun altitude
Rises 17:03:15 0° 333° (NNW) 3,548 7.3 -10.6°
Reaches altitude 10° 17:05:47 10° 338° (NNW) 2,608 6.6 -10.8°
Maximum altitude 17:11:39 56° 57° (ENE) 1,085 4.0 -11.4°
Drops below altitude 10° 17:17:29 10° 135° (SE) 2,592 5.8 -12.0°
Enters shadow 17:18:29 - 137° (SE) 2,964 6.1 -12.1°
